Location: *
(50.6089°N, 2.2719°E)
Time: 15:22:46
(UTC+00:00)

STARLINK-64 - Pass Details

Date: 18 October 2019
Orbit: 545 x 555 km, 53.0° (Epoch: 22 November)

Event Time Altitude Azimuth Distance (km) Brightness Sun altitude
Rises 19:04:40 0° 273° (W) 2,733 8.7 -21.5°
Reaches altitude 10° 19:06:56 10° 277° (W) 1,839 7.4 -21.8°
Maximum altitude 19:11:05 61° 358° (N) 634 3.9 -22.5°
Enters shadow 19:11:22 59° 21° (NNE) 645 3.8 -22.5°
